User: anonymous   Login
Location: Bougoudala
(13.2282°N, 4.9477°W)
Time: 12:16:36
(UTC+00:00)
Language:

Cosmos 1420 Rocket - Orbit

View from above orbital plane
View from above orbital plane
View from above satellite
View from above satellite

Ground track
Ground track

The orbit data is extracted from the following two-line orbital elements,

1 13649U 82109B   20088.88124845 +.00000078 +00000-0 +35111-4 0  9991
2 13649 073.9988 300.0118 0019234 220.4478 151.6305 14.37171138957253
Epoch (UTC): 28 March 2020 21:08:59
Eccentricity: 0.0019234
inclination: 73.9988°
perigee height: 754 km
apogee height: 781 km
right ascension of ascending node: 300.0118°
argument of perigee: 220.4478°
revolutions per day: 14.37171138
mean anomaly at epoch: 151.6305°
orbit number at epoch: 95725

The dashed part of the orbit path shows where the satellite is in the earth's shadow,  

DLR